Wind_Speed
13 20 24 28 38 45 46 45 42 45 50 47 38 28 23 27 29 22 18 26 34 34 32 31 30 30 30 28 27 25 23 22 22 23 25 26 27 27 27 28 27 27 28 27 27 26 25 25 25 24 24 23 24 25 26 27 29 29 28 29 30 31 31 31 30 30 31 31 31 31 32 32 33 33 32 32 33 33 33 33 34 33 31 30 30 31 32
16 20 22 21 29 38 43 43 40 42 48 50 48 39 26 23 30 31 27 28 30 30 33 35 34 33 33 32 30 28 25 25 24 23 24 26 27 27 27 28 28 28 29 28 29 28 27 27 27 26 25 26 27 27 27 29 30 30 30 31 32 32 32 31 31 31 32 31 31 31 32 32 33 33 32 32 33 33 33 34 35 34 31 30 30 32 34
22 27 27 20 21 31 40 45 45 45 47 47 50 50 41 34 34 35 37 38 35 30 31 35 36 36 38 35 32 30 28 26 26 26 25 26 26 28 28 29 29 29 30 30 30 30 29 28 28 28 27 28 29 29 30 32 32 31 31 33 33 33 33 32 32 32 32 31 31 31 32 32 32 32 32 32 32 33 34 35 36 35 33 32 32 33 35
26 32 32 21 15 20 28 34 40 44 47 47 47 47 47 48 45 40 39 43 42 34 31 35 34 31 31 30 30 31 29 25 24 26 26 26 26 28 29 30 31 31 31 31 31 30 30 30 30 30 30 30 31 32 33 33 33 32 33 34 34 33 33 33 32 32 32 31 31 31 31 31 31 31 30 30 31 32 34 34 34 33 32 32 33 33 34
26 30 34 28 21 21 25 27 29 34 40 45 46 46 45 48 50 48 45 45 45 41 40 43 40 33 30 27 25 26 27 27 26 25 26 27 27 28 29 29 30 31 32 31 31 31 32 32 33 32 32 32 33 34 35 34 33 33 34 34 34 33 33 33 32 32 31 31 30 30 31 31 30 30 29 30 31 32 31 31 31 31 31 31 32 33 34
23 23 30 33 31 30 31 33 34 32 32 35 41 45 47 48 49 48 47 45 44 43 44 46 46 43 39 34 29 27 27 28 29 28 28 28 28 28 27 27 29 30 30 31 31 32 33 34 34 33 33 33 34 34 34 33 33 34 34 34 34 33 33 32 32 31 31 30 30 30 30 30 29 30 30 31 31 31 30 30 30 30 30 31 32 33 33
23 20 24 30 33 34 33 33 36 36 33 32 34 38 42 46 48 48 47 46 43 42 43 45 46 45 42 38 35 34 32 29 30 30 30 30 29 28 27 28 28 28 28 29 30 31 32 33 32 32 32 32 33 33 33 33 34 35 34 34 34 33 32 32 31 31 30 29 29 29 29 29 29 30 31 31 31 30 30 29 29 29 30 31 31 32 33
26 25 27 28 26 27 30 30 33 35 34 33 35 37 37 39 42 44 45 44 42 42 43 43 43 42 40 39 38 36 33 31 30 29 30 31 30 29 28 29 29 28 27 28 29 30 31 30 31 31 31 31 32 33 33 34 35 35 34 34 33 33 32 31 31 30 29 29 29 28 28 29 29 29 30 30 30 29 29 29 29 29 30 31 31 32 33
27 26 29 32 28 24 25 27 28 31 32 33 34 34 35 35 36 38 40 40 40 41 40 40 41 41 41 41 39 36 34 32 30 29 29 30 29 29 30 31 31 30 30 30 30 31 31 30 31 31 31 31 32 33 33 34 34 34 33 34 34 33 31 31 30 29 29 29 28 28 28 28 28 29 29 29 29 28 28 28 28 29 30 31 32 32 33
26 22 20 26 32 29 25 25 26 27 29 31 31 31 32 33 34 36 37 37 37 36 34 37 41 42 42 39 35 33 33 32 30 30 29 29 28 28 30 31 31 31 31 31 32 32 31 32 32 31 30 31 31 32 33 34 34 33 34 34 33 32 30 30 29 29 29 29 28 28 28 28 28 28 28 28 28 28 28 28 28 29 30 31 32 32 33
26 23 19 20 25 28 27 25 26 26 26 28 30 32 32 32 33 33 33 33 34 31 30 36 42 42 40 36 33 33 31 30 30 30 30 30 29 29 29 30 31 31 32 32 31 31 32 32 32 31 30 30 31 32 33 34 34 34 34 33 31 30 29 29 29 29 29 28 28 28 28 28 28 28 28 27 27 27 27 27 28 29 30 31 32 32 33
28 28 28 23 21 26 28 25 23 23 25 26 28 29 30 31 33 33 31 32 33 30 31 37 39 36 34 34 35 34 31 30 30 29 29 30 30 30 30 30 31 31 30 30 30 31 32 32 31 30 30 30 31 32 34 35 35 33 32 31 30 29 29 29 29 29 29 28 28 28 28 28 28 27 27 27 26 26 27 27 28 29 30 31 31 32 33
29 28 30 27 24 26 28 23 20 20 22 24 26 27 27 27 29 30 29 30 31 30 32 36 34 31 33 35 35 33 31 30 29 28 28 29 30 30 31 32 31 30 29 30 31 32 31 31 30 30 30 30 32 33 34 35 33 31 31 30 29 29 29 29 29 29 29 28 29 28 28 28 27 27 26 26 26 26 27 28 29 29 30 31 31 32 34
28 27 28 27 26 26 24 20 20 21 22 23 24 25 25 25 26 27 26 26 26 27 31 34 33 33 35 35 33 33 31 29 28 27 28 29 30 31 31 31 30 29 30 32 32 32 31 31 31 30 30 31 32 33 33 32 31 30 30 30 29 29 29 29 29 29 29 29 29 28 28 28 27 26 26 26 26 26 27 28 29 29 30 30 31 33 33
25 25 25 26 27 28 24 20 21 23 24 25 24 23 24 25 26 27 27 26 25 27 30 32 33 33 33 31 31 32 32 31 30 29 29 29 29 29 29 29 29 30 32 33 33 32 32 32 32 31 32 32 33 34 33 32 31 31 30 30 29 29 29 29 29 30 29 29 29 28 28 27 26 26 26 25 26 27 27 28 29 29 29 30 31 32 33
22 22 25 27 28 27 24 23 23 23 23 23 23 24 25 27 27 27 27 28 28 28 29 29 29 29 27 27 28 29 30 31 32 31 31 30 28 27 26 27 29 31 33 33 33 33 33 33 33 33 33 33 34 35 35 33 32 31 30 30 29 29 29 30 31 31 30 29 29 28 27 27 26 26 26 26 26 27 27 28 28 28 29 30 31 31 32
21 23 25 25 24 22 22 24 25 26 25 25 26 27 28 29 29 28 27 27 29 30 28 26 25 25 25 26 28 28 29 30 31 31 30 29 27 26 26 26 29 31 31 31 32 32 33 34 34 33 33 33 34 35 35 34 33 32 31 29 29 29 30 31 32 31 30 29 29 28 27 27 26 26 26 26 26 27 27 27 28 28 29 30 30 31 31
17 19 20 20 20 21 22 24 25 27 28 28 29 30 29 29 30 30 28 27 28 30 30 26 24 25 27 28 30 30 30 31 31 29 28 26 25 25 25 26 28 30 30 30 31 32 33 33 33 33 34 34 35 36 35 34 33 32 31 30 29 30 32 33 32 32 30 29 29 28 28 27 26 26 26 26 26 26 26 27 27 28 28 29 30 30 30
14 15 17 18 19 20 21 23 25 26 28 29 30 30 28 28 30 32 31 29 29 30 31 28 25 25 27 28 29 30 30 30 28 27 26 26 25 25 25 27 29 29 29 29 30 31 32 33 34 34 35 36 37 36 35 34 34 33 31 30 31 33 34 34 33 32 31 30 29 29 28 27 26 26 26 26 26 26 26 26 27 27 28 28 29 29 30
16 17 17 18 19 19 21 22 23 24 25 27 27 28 28 28 29 31 33 33 32 31 31 29 27 26 27 27 28 30 30 29 27 26 26 26 26 26 26 27 28 28 27 28 30 31 32 34 35 35 36 37 37 37 36 36 35 33 32 32 34 35 35 35 34 32 31 30 30 29 28 27 26 26 26 26 26 26 26 26 26 27 27 27 27 28 29
19 20 19 19 20 21 21 21 22 23 23 23 24 26 27 28 29 30 32 32 33 32 31 30 29 27 28 28 29 30 30 29 28 28 28 27 27 28 28 28 28 28 28 29 30 31 33 35 36 36 37 38 38 37 37 37 36 34 34 35 36 36 36 36 34 32 31 31 30 29 28 27 27 26 26 26 26 25 25 25 25 26 26 26 27 28 28
21 22 21 20 20 21 21 22 23 24 24 24 24 24 25 25 26 28 29 30 32 32 31 31 31 30 29 30 31 31 30 30 30 30 29 29 29 29 29 28 28 29 30 30 31 33 35 36 37 37 38 39 38 39 39 38 36 36 36 37 37 38 38 36 33 32 32 31 30 29 28 27 26 26 26 26 25 24 24 24 25 25 25 25 26 27 27
23 23 23 23 23 23 22 22 22 22 23 24 24 24 24 24 24 25 26 28 29 31 31 32 32 32 31 31 32 31 30 30 30 30 30 30 30 30 29 29 29 30 31 31 32 33 35 37 38 38 39 39 39 39 39 38 37 37 38 38 39 40 38 35 33 33 32 31 30 29 28 27 26 26 25 25 23 23 23 23 24 24 24 24 25 25 26
24 24 24 25 25 24 23 22 22 22 23 23 23 23 23 23 24 24 25 26 27 29 30 31 32 32 32 32 33 33 31 30 30 30 30 31 31 31 30 29 29 30 31 32 33 34 35 37 38 39 39 39 40 40 40 39 38 39 40 40 40 38 35 33 33 33 32 30 30 29 28 28 27 25 24 23 22 22 22 22 22 22 23 23 24 24 24
23 23 23 23 24 23 22 22 22 22 23 23 23 23 24 24 25 25 26 26 27 28 29 31 32 32 32 32 33 33 32 31 31 32 33 34 34 33 33 32 31 31 32 33 34 34 35 35 37 38 39 39 40 40 39 39 40 41 41 39 36 33 32 33 34 33 31 31 30 30 29 28 26 24 23 22 21 21 21 21 21 22 22 22 22 22 21
22 21 21 21 22 21 21 21 20 21 21 21 22 23 23 24 25 26 27 28 28 28 29 31 32 33 33 32 32 32 32 30 31 34 38 41 41 39 36 34 33 32 33 34 34 34 33 33 35 36 37 37 38 38 38 39 41 41 39 36 33 31 31 33 33 32 32 31 31 30 29 27 24 22 21 21 21 20 20 20 20 20 21 21 21 20 19
22 21 20 21 21 20 20 20 19 19 20 20 20 21 22 23 24 25 26 27 28 28 29 31 32 34 34 33 33 33 32 30 29 30 33 37 42 42 39 36 35 34 34 35 35 34 33 33 34 35 35 36 37 38 38 40 41 39 36 33 31 31 31 32 32 33 32 32 32 30 27 25 23 22 21 20 20 19 19 19 19 20 20 20 19 18 18
21 20 21 21 21 20 19 19 19 19 19 20 20 21 22 23 25 25 26 26 28 29 29 30 31 33 35 34 34 33 32 29 29 28 27 27 31 35 36 36 35 35 35 36 36 36 36 36 37 37 36 36 37 38 38 39 39 37 34 32 31 30 31 32 33 33 33 32 31 29 26 24 23 21 19 19 18 18 18 19 19 19 18 18 17 17 17
20 21 21 21 22 21 20 19 19 19 20 21 21 21 22 23 25 26 27 27 28 28 28 29 31 33 33 33 33 34 32 30 30 31 30 28 29 30 32 33 34 35 36 37 38 39 39 39 40 39 38 37 38 38 38 38 38 36 34 32 31 31 32 32 33 33 33 32 29 27 25 24 22 19 18 18 18 18 18 18 18 18 17 17 16 16 16
20 21 21 22 22 23 22 21 21 21 21 21 21 21 21 22 23 25 26 28 29 28 28 29 31 31 31 31 32 33 33 32 31 31 31 31 31 31 32 33 34 36 37 38 38 39 39 39 40 40 39 38 39 38 37 37 37 36 35 34 33 33 32 32 32 32 32 30 27 26 25 23 20 18 17 17 18 18 18 17 17 17 16 16 16 16 16
19 21 22 22 23 23 23 23 22 22 22 21 21 20 20 21 22 23 25 26 26 27 28 30 31 30 30 30 30 31 31 32 31 31 31 31 31 32 33 34 35 36 36 37 38 38 37 38 39 39 39 39 39 37 36 36 38 40 38 36 34 32 31 30 30 30 30 28 26 25 23 21 19 18 18 18 18 18 17 17 17 16 16 15 15 16 17
20 21 21 21 21 22 23 23 23 23 22 22 21 21 20 20 20 21 22 22 22 23 26 28 30 30 30 29 29 29 30 30 30 31 31 32 32 32 33 34 34 35 36 37 38 37 37 37 39 39 38 38 40 39 38 38 41 43 40 35 31 30 29 29 29 29 29 27 25 24 22 20 19 18 18 18 18 18 17 17 17 16 16 15 15 16 17
20 20 19 18 18 19 20 21 22 22 22 22 22 21 20 20 20 20 20 19 19 21 23 24 26 27 27 27 28 29 30 30 30 31 31 31 30 30 31 32 32 32 34 36 37 37 38 40 41 38 37 39 42 43 43 43 43 42 37 32 29 29 29 30 30 30 28 26 25 24 22 20 19 18 19 19 19 18 17 17 17 17 16 16 16 16 17
20 20 19 18 18 17 18 18 19 20 21 21 21 21 20 20 20 20 19 19 20 21 22 22 22 23 23 23 25 26 26 27 28 28 28 28 28 28 29 29 30 31 32 34 35 36 37 39 40 39 40 43 45 44 45 46 45 40 34 32 31 31 31 31 30 28 26 25 25 23 21 20 19 19 20 20 19 19 18 18 18 17 17 17 17 17 18
21 21 21 20 19 18 19 19 19 19 19 20 20 20 20 20 20 20 20 20 20 20 20 19 20 21 21 22 22 22 23 24 25 25 26 26 26 27 28 29 29 30 30 31 32 32 34 38 41 43 46 48 45 39 36 38 38 36 34 32 32 31 30 29 27 26 25 25 25 23 21 20 20 20 21 21 20 20 19 19 19 18 18 19 19 18 19
22 23 23 21 21 21 22 22 22 21 22 22 22 22 22 23 23 23 22 22 22 22 21 21 20 20 20 20 21 21 22 23 24 24 25 25 25 26 28 29 29 29 29 29 29 29 31 33 35 37 41 43 40 33 30 30 32 32 32 31 29 28 28 26 25 25 25 25 24 23 22 21 21 21 22 22 21 21 20 20 20 20 20 20 21 20 20
23 24 24 24 24 24 24 24 25 25 25 25 25 25 25 26 26 25 26 25 25 24 24 24 23 23 22 22 22 22 22 23 24 24 25 25 25 26 27 28 29 30 30 30 30 30 30 30 29 29 30 33 34 33 31 29 29 30 30 29 27 26 26 25 24 25 26 25 24 23 22 22 22 22 23 23 23 22 22 22 21 22 22 22 22 22 22
22 23 23 23 24 24 24 24 25 25 25 26 26 26 27 27 27 27 27 27 27 27 27 26 26 26 26 26 25 24 24 24 25 25 25 26 26 26 27 28 28 28 29 30 31 31 31 31 30 28 26 27 29 32 33 31 29 29 29 27 25 24 24 25 25 26 27 26 25 24 23 23 23 24 24 24 24 24 23 23 23 23 22 22 22 23 24
18 19 19 20 20 20 21 22 22 23 23 24 24 25 25 26 26 27 27 27 27 27 28 28 28 28 28 28 28 28 27 27 27 28 28 27 27 28 28 28 28 27 27 28 29 29 29 29 28 28 27 28 31 34 35 34 32 30 29 26 25 24 25 26 27 28 28 27 26 25 24 24 24 25 25 25 25 25 25 25 24 23 23 23 23 24 25
15 15 15 16 16 16 17 17 17 18 19 19 20 21 21 22 23 24 25 25 26 27 27 28 28 29 29 30 30 30 30 30 30 30 30 30 29 29 29 29 28 28 27 27 26 26 26 26 25 25 27 30 33 35 34 32 30 28 27 26 26 26 27 27 28 29 29 28 27 26 25 25 25 26 26 27 27 26 26 25 24 24 23 24 25 26 27
13 13 13 13 13 13 13 13 14 15 15 16 16 17 17 18 19 19 20 21 22 23 24 25 26 27 28 29 30 31 32 32 33 33 32 32 31 31 30 30 30 29 28 27 26 24 24 23 21 21 25 30 32 32 31 29 25 24 24 25 25 26 27 29 29 29 28 28 27 26 26 26 26 27 28 28 28 28 27 26 25 25 25 26 26 27 29
13 13 13 13 12 12 12 13 13 14 15 16 16 17 17 18 18 18 18 18 19 19 20 21 22 23 25 26 28 30 31 32 33 33 33 33 33 32 31 30 29 28 28 27 27 26 25 24 22 22 25 29 30 28 25 24 22 20 21 23 25 26 28 29 29 29 29 28 28 27 27 28 28 29 29 29 29 29 28 27 27 27 28 28 29 29 30
13 13 13 12 12 12 11 11 11 12 13 14 15 16 16 17 18 18 18 18 18 19 19 20 20 22 23 24 26 28 29 30 31 32 33 33 33 33 32 31 30 30 29 29 28 27 26 26 25 25 26 29 31 30 26 23 20 19 20 22 25 26 28 28 29 29 29 29 28 28 28 29 29 30 30 30 30 29 29 29 30 30 30 31 31 31 32
11 11 11 10 9 9 9 9 9 10 10 11 12 13 13 15 15 16 16 17 17 18 18 18 19 20 21 22 24 25 26 27 28 29 30 29 29 30 30 30 29 29 29 29 28 28 27 26 27 28 29 30 33 34 32 27 22 20 20 22 24 26 27 28 29 29 29 29 29 29 29 29 30 30 30 30 30 30 30 31 32 32 32 32 33 33 34
10 9 9 8 8 8 9 9 10 11 11 12 12 12 13 13 14 14 15 15 15 16 16 16 16 17 17 18 20 21 22 23 24 25 26 27 27 27 27 27 26 27 27 28 28 28 28 28 29 31 30 29 31 34 33 29 25 22 21 22 24 25 27 28 28 29 29 29 29 29 29 30 30 30 31 31 31 32 32 33 33 34 34 34 34 35 36
10 10 10 9 9 9 10 10 11 12 12 13 14 14 14 14 14 14 14 14 14 14 14 14 14 14 15 15 16 17 18 19 21 21 23 24 25 25 26 26 27 28 29 28 28 28 28 29 31 32 32 31 32 33 31 29 26 24 23 23 24 25 26 27 27 28 28 29 29 30 30 31 31 31 31 32 32 33 34 34 35 35 35 35 36 36 37
11 11 11 10 10 10 10 10 11 12 12 13 14 14 14 15 15 14 14 13 13 13 12 12 12 13 13 13 14 15 15 17 19 20 21 22 22 22 23 24 26 27 28 29 30 31 31 30 29 30 31 31 30 29 27 27 26 26 25 25 25 25 26 26 27 28 29 29 30 30 31 31 32 32 32 33 34 34 35 35 35 36 36 37 37 38 39
12 12 12 11 11 11 11 11 11 11 12 12 13 13 13 14 14 14 13 13 13 12 12 11 11 11 11 11 12 12 13 15 16 18 20 21 21 22 23 23 23 23 23 25 26 27 27 26 25 24 25 24 24 24 24 25 26 26 26 26 25 25 26 26 27 28 28 29 30 30 31 32 32 33 33 34 35 35 36 36 36 37 37 38 39 39 40
13 13 12 12 12 12 11 11 11 11 11 11 12 12 12 12 12 12 12 12 12 12 12 11 11 11 11 10 10 10 11 12 13 15 16 18 19 20 21 22 23 22 22 22 21 21 20 20 21 21 21 22 23 24 25 26 26 26 26 25 24 24 25 25 26 27 28 29 30 30 31 32 33 34 34 35 35 36 37 37 38 38 39 40 41 42 42
14 14 13 13 13 12 12 12 11 11 11 11 11 11 11 11 11 11 11 11 11 11 11 11 11 11 11 11 10 10 10 10 11 11 13 15 16 17 18 19 20 20 19 19 19 19 19 19 19 20 21 21 22 23 24 25 25 25 24 23 23 23 24 25 26 27 28 29 30 31 32 33 34 35 35 36 36 37 39 39 40 41 42 43 44 44 44
16 15 15 15 14 14 13 13 12 12 12 12 12 12 12 11 11 11 11 11 11 11 11 10 11 11 11 11 11 10 10 10 10 10 10 11 12 13 14 15 16 17 16 16 16 16 17 18 19 19 20 21 21 22 22 23 23 23 23 23 23 23 24 25 27 28 29 30 30 32 33 34 35 36 36 37 38 39 40 41 42 43 45 46 46 46 46
17 17 17 17 16 16 15 15 14 14 13 13 13 13 13 12 12 12 13 12 12 12 12 11 11 10 11 11 12 11 11 11 11 10 10 10 11 12 12 13 14 16 17 17 16 15 16 17 18 18 19 19 19 19 20 20 21 22 23 23 23 24 25 26 27 28 29 30 32 33 34 36 36 37 38 38 39 40 41 42 44 45 46 47 47 48 48
Wind_Direction
176 189 198 211 211 208 209 210 211 215 213 207 205 210 217 217 214 214 226 237 237 235 233 235 240 244 244 244 245 242 239 235 232 234 232 229 230 233 235 236 236 237 237 237 238 237 237 237 238 240 244 249 254 257 260 263 265 268 272 275 276 279 282 285 288 288 288 290 292 293 295 296 296 295 294 294 295 296 296 296 297 297 298 298 299 301 302
169 188 191 207 214 208 208 211 213 215 215 214 214 213 215 221 219 214 217 230 237 239 239 240 243 247 246 244 245 247 245 241 238 235 229 226 226 228 231 234 235 236 237 238 239 240 240 240 242 243 246 250 254 258 261 263 265 268 271 272 275 279 282 285 286 287 288 290 292 294 295 295 294 293 293 293 294 295 295 295 296 295 294 295 298 301 301
179 190 190 199 212 211 212 215 217 219 220 220 221 220 221 226 226 220 219 225 232 237 243 243 243 246 249 248 250 252 252 249 243 234 227 226 225 225 226 228 231 234 235 237 240 243 243 244 245 247 248 251 255 259 261 263 264 267 269 270 274 279 282 284 286 286 288 291 292 293 294 293 292 291 292 292 292 293 294 295 295 294 293 295 298 299 299
185 190 189 183 187 204 211 214 218 221 223 225 225 224 226 230 233 233 229 229 231 233 240 244 241 241 246 249 251 252 253 252 246 238 233 232 230 227 226 226 227 230 232 236 239 242 244 246 247 248 249 252 255 258 260 262 264 266 267 270 275 278 281 283 285 286 288 290 291 292 292 291 291 291 291 292 294 295 296 295 295 295 295 297 298 299 299
189 191 191 182 178 191 197 201 212 220 224 228 229 228 230 232 235 238 238 235 234 233 237 243 244 244 246 252 255 256 254 250 244 239 236 234 233 233 231 229 228 229 231 233 235 237 240 242 244 245 247 250 253 256 258 260 262 264 267 271 275 278 280 282 284 286 287 289 290 290 290 290 291 291 291 294 296 297 297 297 297 297 297 298 298 300 302
187 189 194 195 200 206 207 208 214 217 220 226 229 231 232 233 235 237 239 239 239 240 242 245 248 250 252 253 252 252 251 246 241 239 236 234 234 234 234 233 233 233 233 234 233 234 236 238 241 243 246 249 252 254 256 258 260 264 268 271 274 277 280 282 284 285 286 287 288 288 288 290 291 292 293 295 297 298 297 297 297 297 298 299 300 302 304
192 191 198 207 215 220 222 223 222 221 221 222 227 230 231 233 235 237 238 239 240 242 244 246 248 249 250 251 250 250 250 248 243 240 238 237 236 234 232 233 234 236 237 237 238 238 239 240 242 243 245 248 250 252 254 257 260 264 267 270 273 276 279 281 282 283 285 286 286 287 287 289 291 292 294 295 296 297 297 297 297 298 300 301 303 305 306
204 206 209 212 220 224 226 228 226 226 227 227 230 232 232 233 236 238 238 239 239 241 244 248 250 251 250 250 249 249 250 251 250 246 241 241 240 237 235 234 235 235 234 235 237 239 241 242 243 244 245 247 249 252 254 257 260 264 267 270 273 276 278 279 281 282 284 285 286 287 287 289 291 292 293 295 295 296 296 297 298 300 302 304 305 307 307
207 213 218 219 222 224 227 229 226 226 229 231 235 237 237 237 240 243 244 243 240 241 243 248 252 253 251 249 249 250 250 251 251 248 244 243 243 241 240 239 238 237 235 234 235 237 239 241 242 244 245 247 249 252 255 258 260 264 266 269 272 274 276 278 280 282 284 285 287 288 288 289 291 292 293 294 294 295 296 297 299 302 304 306 306 307 308
208 206 215 226 229 229 230 231 228 227 229 231 235 238 240 240 240 244 247 248 246 244 244 246 249 251 252 252 253 253 251 249 248 246 244 244 244 242 242 242 242 241 241 241 242 243 244 244 245 246 247 248 250 252 255 257 260 263 265 267 270 273 276 278 281 283 284 285 287 288 289 290 291 292 292 292 293 293 295 298 301 303 305 306 307 307 310
214 205 205 223 233 232 231 229 229 230 231 232 234 238 240 242 242 243 245 248 250 249 246 246 247 250 253 256 256 255 253 250 247 246 244 243 242 241 241 242 242 242 242 244 245 246 247 247 248 249 249 249 250 251 254 257 259 261 263 266 270 273 276 279 281 283 284 285 285 286 288 289 290 290 290 290 290 292 295 299 302 304 306 307 307 310 313
212 208 207 214 225 231 229 225 227 232 233 232 234 238 240 242 244 244 244 246 247 246 244 245 248 251 254 255 255 254 251 247 245 244 243 241 239 240 240 241 241 241 242 243 243 244 245 247 248 249 248 248 249 250 253 256 258 260 262 265 269 273 276 280 282 283 283 283 283 284 286 288 289 288 288 288 289 293 296 300 303 304 306 307 309 313 316
214 214 213 213 221 231 230 225 223 227 229 230 232 236 239 240 242 243 243 245 245 243 243 245 247 248 248 248 249 248 247 246 244 241 239 239 239 239 240 240 241 240 240 241 241 242 244 245 246 246 246 247 248 250 253 255 257 259 261 265 269 273 277 280 283 283 282 281 280 282 284 285 286 285 285 286 290 294 297 301 303 305 307 309 312 315 317
218 221 221 220 226 232 231 225 223 224 225 226 228 231 235 237 238 237 237 241 243 240 241 245 245 243 243 245 247 247 246 244 242 239 237 237 238 239 239 240 241 240 239 240 241 241 242 243 244 245 245 246 248 251 253 255 257 259 261 265 269 273 277 280 283 283 281 279 279 280 282 283 283 282 283 286 290 295 298 301 304 306 308 310 314 316 317
219 224 226 226 229 232 229 222 222 225 226 226 227 230 234 235 237 235 233 237 240 238 239 242 242 242 244 246 247 247 243 240 239 239 239 238 239 240 241 241 241 239 240 241 241 241 241 241 242 242 244 247 249 251 253 255 256 258 260 264 269 273 276 280 281 281 279 278 277 278 280 280 279 280 282 286 291 295 299 302 305 306 308 312 315 316 317
218 223 226 227 230 234 231 225 224 227 229 229 230 231 233 234 236 236 234 234 236 237 239 241 241 242 243 242 241 241 240 238 238 240 241 241 241 240 240 240 240 240 241 242 242 241 240 240 240 240 242 245 248 251 252 253 254 256 259 263 268 272 276 278 279 279 278 277 276 277 278 277 277 279 282 287 292 296 300 303 305 306 309 313 315 315 316
218 224 229 232 233 235 232 227 226 228 230 232 233 234 233 234 236 237 235 234 236 238 240 241 240 239 235 231 232 235 237 238 238 238 240 242 241 238 237 238 240 242 243 243 243 242 240 240 240 240 241 244 248 250 251 251 253 254 257 262 268 272 275 276 277 277 277 275 275 275 275 275 276 278 282 287 291 296 300 302 304 307 311 313 314 314 316
221 227 232 233 233 234 232 229 228 230 233 234 237 238 237 237 238 239 238 236 238 240 241 239 237 236 232 231 233 237 238 239 239 240 240 241 240 238 237 238 240 242 243 244 244 244 243 242 241 239 239 243 246 248 249 250 251 254 258 263 269 271 273 275 276 276 274 273 273 273 272 273 275 278 283 288 291 295 299 301 304 308 311 312 313 314 316
216 223 226 228 231 233 234 233 232 234 236 238 239 241 242 241 240 241 241 240 240 243 243 240 237 236 237 237 238 239 239 240 241 241 240 239 239 239 238 237 238 240 241 243 244 245 244 243 242 240 240 242 245 247 249 250 251 254 259 265 268 269 272 273 274 273 272 271 271 270 270 272 275 278 284 288 291 295 297 300 304 308 310 311 312 315 318
219 225 227 228 231 232 233 236 238 238 240 241 242 245 247 245 243 242 242 242 242 243 243 241 238 236 238 239 240 240 240 240 240 240 240 240 241 241 241 241 241 242 241 241 242 244 245 243 242 241 242 243 244 246 248 249 251 256 260 264 266 268 270 272 272 271 269 268 269 268 269 271 274 279 284 288 291 293 295 300 304 307 308 310 313 316 318
223 229 231 233 235 234 235 238 240 241 244 245 244 246 248 248 247 246 246 246 246 246 244 242 240 237 237 238 239 241 242 241 241 242 243 243 243 244 244 244 245 245 243 241 242 244 244 244 243 242 242 243 244 245 247 249 253 257 260 263 266 268 269 270 269 268 267 267 267 267 267 270 275 280 284 287 289 291 295 300 304 305 307 310 314 317 318
223 228 232 236 239 239 239 240 241 244 247 248 247 247 248 248 248 248 248 248 249 249 248 245 242 239 238 238 238 239 241 242 242 244 245 245 246 246 246 245 245 245 244 243 243 243 244 245 245 244 243 243 243 245 248 252 256 259 261 264 266 267 268 268 266 265 264 264 265 265 267 270 276 281 284 285 286 290 295 300 302 304 307 311 314 316 318
225 228 232 236 238 239 240 241 243 245 248 249 250 250 250 251 251 251 251 250 250 250 250 249 245 241 239 239 239 238 238 240 242 244 245 246 247 247 246 245 244 244 245 244 244 244 245 246 246 245 245 246 246 248 252 255 257 259 262 263 265 266 266 264 263 262 262 262 263 265 267 272 277 280 281 282 285 291 295 298 300 303 307 311 314 316 318
229 230 234 238 240 243 245 245 246 248 251 254 256 255 254 254 254 254 254 253 252 251 250 249 248 245 241 240 241 241 240 240 243 245 246 247 247 246 244 243 244 245 245 245 244 244 244 245 246 246 247 247 249 252 255 257 258 259 261 262 263 263 263 261 260 259 260 261 263 266 269 274 276 275 276 280 286 290 293 295 298 303 307 310 313 315 318
232 233 237 241 243 247 250 250 251 253 255 256 257 257 256 255 255 256 257 257 256 253 250 249 249 248 244 242 243 244 243 244 245 246 247 249 250 248 244 243 244 245 245 245 246 246 245 245 246 247 248 250 251 254 256 256 257 258 260 260 260 260 259 259 258 258 258 260 264 268 271 272 272 271 274 280 285 288 290 293 298 302 306 309 312 315 318
233 233 236 240 243 246 249 250 251 253 253 251 251 253 254 256 258 259 259 259 259 257 253 250 250 249 248 245 243 244 244 245 245 245 245 246 246 244 242 241 242 243 245 246 248 248 247 246 246 247 249 250 251 253 255 255 256 258 259 259 259 258 258 258 257 257 258 261 265 269 269 268 268 269 273 279 283 286 289 292 296 301 304 308 311 314 317
234 235 237 240 243 245 246 248 250 252 252 251 251 252 254 256 258 259 260 260 260 258 256 252 250 250 250 246 242 241 243 244 245 244 245 245 241 238 238 240 241 242 244 246 247 248 247 245 245 247 249 250 251 253 254 255 257 259 260 262 261 259 257 257 256 256 258 262 265 265 264 264 265 267 271 277 281 284 287 290 295 299 302 306 310 313 315
236 238 240 242 245 248 250 250 251 253 254 254 253 253 253 255 257 258 259 259 258 258 258 256 253 252 250 247 243 242 244 246 245 244 246 246 242 238 239 240 241 242 244 245 247 248 248 247 247 249 251 251 253 254 256 257 259 260 261 263 262 259 257 256 255 256 259 262 261 260 261 262 263 265 271 277 280 281 284 287 292 296 300 304 307 309 311
238 240 242 245 248 251 253 253 252 253 253 254 254 255 255 256 257 258 258 258 257 258 258 256 254 254 253 248 245 244 245 246 246 246 246 247 245 243 242 242 242 243 245 246 247 250 251 250 250 252 252 252 253 256 258 259 259 260 261 261 259 255 253 253 255 259 262 260 258 258 260 260 260 264 271 275 276 278 281 285 290 293 297 300 303 305 307
243 245 246 248 250 252 254 254 254 253 252 252 255 258 259 259 259 259 259 259 258 257 256 254 254 256 256 252 248 247 246 246 247 248 249 250 249 247 246 246 247 247 247 247 249 251 252 252 251 252 251 251 253 256 258 259 258 258 258 257 255 251 250 252 256 260 260 257 256 258 259 258 258 263 269 271 273 276 279 282 286 290 292 296 299 301 303
248 249 250 251 252 253 253 253 253 252 250 250 253 256 259 260 260 259 259 260 260 258 256 253 252 252 252 251 248 247 246 247 248 249 251 253 252 250 249 249 250 249 249 250 251 252 252 252 251 251 251 251 252 255 258 261 261 258 254 253 252 251 250 254 258 258 255 255 256 257 255 254 257 262 265 268 270 272 275 278 282 285 287 289 292 294 297
250 251 253 254 255 254 252 251 251 250 248 248 251 254 257 260 259 259 259 260 260 258 255 252 250 249 249 249 248 246 245 246 247 249 250 251 251 251 250 250 251 251 251 250 251 251 252 252 252 253 254 253 253 255 257 261 263 261 255 252 250 248 250 254 255 253 253 253 253 253 252 253 257 261 263 265 266 268 272 275 277 280 283 285 286 288 292
248 250 252 253 253 252 250 249 249 250 250 250 252 255 257 258 259 260 260 258 255 254 253 252 251 252 252 251 249 246 243 243 243 245 247 249 250 251 251 251 251 251 249 249 250 252 252 251 252 256 259 257 255 253 253 256 260 260 255 249 245 244 247 250 249 249 251 252 250 251 252 254 257 260 260 261 263 265 268 271 273 276 279 281 283 285 289
245 246 247 248 248 250 250 248 248 250 251 252 253 254 255 257 259 260 259 255 252 251 252 252 252 253 253 251 248 244 241 240 241 244 247 250 251 251 251 251 250 250 249 249 250 251 250 251 254 258 259 258 256 253 253 256 257 253 245 243 245 245 244 243 243 246 249 250 249 250 252 253 256 258 257 258 261 263 265 267 270 273 275 278 281 284 288
243 244 245 245 247 249 250 249 249 250 251 252 252 252 252 254 255 255 255 254 253 252 252 252 251 250 249 249 248 245 242 241 242 245 247 249 251 252 253 252 251 251 252 252 252 253 254 256 258 260 258 255 254 256 259 257 251 243 239 243 246 243 239 239 241 244 247 248 248 249 250 252 253 254 255 256 258 260 262 265 268 270 273 276 280 284 288
243 245 247 248 249 250 252 252 252 252 252 253 253 253 253 253 253 252 252 252 252 252 251 250 250 250 249 249 248 247 246 245 245 246 247 248 249 250 252 253 253 254 254 254 255 257 259 260 262 264 261 254 252 258 265 259 247 240 242 243 241 236 236 239 242 244 246 247 248 248 248 250 251 252 253 254 256 258 261 264 266 269 272 276 279 284 288
247 249 251 252 252 253 255 256 256 256 256 256 256 256 255 255 255 254 254 253 253 252 251 251 250 251 251 250 248 247 245 245 246 246 246 247 247 248 250 253 255 256 256 256 256 258 260 262 265 267 264 256 255 263 269 263 251 243 240 236 233 234 238 241 243 245 246 246 246 245 245 247 249 250 251 253 255 258 261 263 266 269 273 276 281 285 287
249 251 252 254 255 256 257 258 258 259 259 259 259 259 258 258 258 258 258 258 257 255 255 254 252 251 251 250 249 248 245 245 244 244 245 246 246 247 249 252 254 255 256 257 257 257 258 261 263 263 262 260 261 265 267 264 255 245 237 232 232 236 239 241 243 245 246 245 244 244 244 245 247 249 251 253 256 258 260 263 266 270 274 278 282 285 288
248 250 252 254 256 257 258 259 260 260 261 261 261 261 260 260 261 261 260 261 260 259 259 258 256 255 254 253 251 250 248 247 246 245 244 244 245 247 248 250 253 255 256 258 259 260 260 260 261 261 260 260 261 262 261 259 252 242 235 232 231 234 237 241 244 245 245 243 242 243 243 245 246 249 251 253 256 259 261 264 268 272 275 279 281 283 285
249 251 252 254 256 258 259 260 261 262 262 263 263 263 263 263 263 263 263 262 262 261 261 260 259 258 257 255 253 252 251 250 249 248 247 246 246 246 248 250 252 253 255 258 261 261 259 257 257 258 259 259 259 257 254 250 243 236 231 230 230 232 237 242 244 245 244 242 241 241 243 245 246 249 251 254 256 259 262 266 270 273 276 278 280 283 285
250 251 251 252 253 255 258 261 262 263 264 264 264 265 266 266 266 266 266 265 265 265 264 264 263 262 260 258 255 253 252 250 250 250 250 249 248 248 248 250 252 253 255 258 258 256 254 252 251 252 255 256 253 248 243 239 235 233 231 230 230 233 237 241 243 244 243 241 240 241 243 245 247 249 251 254 257 260 263 267 270 273 275 276 278 281 284
252 252 252 254 256 259 263 266 268 268 268 267 266 266 266 266 267 268 268 268 269 269 269 269 268 267 264 262 259 256 254 251 250 249 249 249 249 248 248 249 250 250 252 253 253 252 252 251 249 249 252 249 244 239 238 238 236 233 231 231 232 235 238 240 242 242 241 240 240 241 243 245 247 249 251 254 256 260 264 267 270 272 274 275 277 279 282
253 254 256 259 262 264 267 270 273 275 275 273 270 269 268 267 267 268 269 270 271 271 272 273 272 271 268 265 262 259 256 253 251 249 248 248 248 247 247 246 246 246 246 248 250 251 253 252 250 250 249 245 238 235 238 243 241 236 233 233 235 237 239 240 240 240 240 240 241 243 245 247 249 251 253 255 257 260 264 267 270 272 274 277 280 283 285
253 254 255 256 257 260 263 267 272 274 275 275 273 271 270 269 269 269 269 270 270 272 274 277 278 276 273 269 264 261 258 255 253 251 249 247 246 247 247 246 246 246 247 248 250 252 254 253 249 247 247 247 243 238 238 243 249 247 241 237 237 239 241 241 240 240 240 242 244 245 247 250 251 253 255 257 259 262 264 267 270 272 275 279 283 286 288
245 242 241 242 249 257 264 269 272 273 273 273 273 273 273 273 274 274 273 273 274 276 280 284 286 285 282 277 270 265 259 255 252 250 248 245 244 243 243 243 244 245 245 245 246 249 251 252 249 246 246 247 243 237 237 245 255 257 251 245 242 243 244 245 244 243 243 245 246 248 249 251 253 256 257 259 261 263 266 268 271 274 278 281 283 285 287
232 231 234 241 251 260 267 272 274 275 274 273 272 272 273 274 275 276 276 277 279 281 285 289 293 293 290 285 279 272 264 256 251 248 247 245 244 242 241 242 242 243 243 243 243 245 248 252 251 246 241 237 234 234 240 250 259 259 255 251 248 247 248 249 248 247 247 247 248 249 250 253 255 257 258 260 263 265 268 271 273 277 279 282 284 286 288
234 235 240 247 254 261 268 273 277 279 280 279 277 277 276 276 277 278 279 280 282 283 285 290 295 298 297 292 286 279 271 262 253 248 247 248 248 247 246 246 247 246 245 244 244 244 246 245 242 235 231 231 234 239 247 255 259 259 258 255 251 249 250 250 249 249 248 248 249 250 252 254 256 258 260 263 265 267 270 272 275 277 280 282 285 287 289
244 246 249 253 257 261 265 270 275 280 284 285 286 286 285 283 282 281 282 283 284 286 288 291 296 299 300 297 290 284 278 270 261 254 252 253 255 254 253 254 255 253 249 245 242 240 237 234 231 230 233 238 243 247 251 254 255 256 256 253 250 249 249 249 249 249 249 249 250 252 254 256 258 260 262 265 267 269 271 273 275 277 279 281 283 284 285
249 251 254 256 259 262 264 266 270 275 280 285 289 291 292 291 289 287 286 286 287 288 292 295 298 301 302 301 296 289 282 275 268 261 258 258 260 261 261 262 263 263 261 257 254 250 246 244 244 248 251 252 252 252 252 251 251 250 250 249 249 249 249 249 249 249 250 250 252 254 256 258 261 263 265 267 269 271 273 275 277 279 280 281 282 283 284
250 252 254 255 258 261 263 265 268 271 274 279 284 287 289 291 291 289 288 287 288 289 292 296 298 300 302 303 301 296 289 281 273 266 261 259 260 262 264 265 266 266 265 262 260 258 256 253 252 253 254 253 253 252 251 250 249 249 248 247 247 247 248 249 249 249 250 252 254 256 258 260 262 264 265 268 270 272 274 276 277 279 280 281 282 284 285
251 252 254 255 257 259 261 264 267 270 273 276 279 282 285 288 288 288 288 288 287 287 287 288 291 294 297 299 300 299 294 287 281 273 264 259 257 257 259 261 262 261 259 256 253 251 249 248 248 249 250 252 252 251 251 251 251 249 246 244 244 245 247 249 250 251 253 254 255 257 258 260 261 263 265 267 269 270 272 274 276 277 279 280 282 284 285
252 253 254 255 257 259 260 263 265 267 270 272 275 278 282 285 286 286 286 286 286 286 286 284 284 285 287 289 291 293 292 291 287 280 270 262 256 253 253 254 256 257 258 257 255 253 252 251 251 250 251 252 253 253 253 253 251 249 247 246 247 248 249 250 252 253 254 255 256 257 258 260 262 263 265 267 268 270 271 273 275 277 279 282 284 286 287
Height
5671 5675 5678 5678 5680 5684 5688 5691 5693 5696 5700 5703 5706 5709 5713 5715 5718 5721 5724 5724 5724 5727 5729 5731 5732 5733 5735 5737 5738 5741 5743 5746 5749 5751 5752 5753 5755 5757 5759 5760 5762 5763 5764 5766 5767 5769 5770 5772 5773 5775 5776 5777 5778 5778 5778 5778 5778 5779 5779 5779 5778 5778 5778 5777 5777 5776 5775 5774 5773 5772 5771 5769 5768 5767 5766 5765 5764 5763 5761 5760 5759 5758 5756 5754 5753 5751 5750
5669 5673 5676 5677 5679 5683 5686 5688 5691 5694 5697 5700 5703 5707 5711 5712 5714 5718 5721 5721 5722 5724 5725 5727 5729 5730 5732 5733 5736 5739 5742 5744 5746 5748 5749 5751 5753 5754 5756 5758 5759 5760 5762 5763 5764 5766 5768 5769 5771 5772 5773 5774 5775 5775 5776 5775 5775 5776 5776 5775 5775 5775 5775 5774 5774 5773 5772 5771 5770 5769 5767 5766 5765 5764 5763 5762 5761 5760 5759 5758 5756 5755 5753 5751 5750 5748 5746
5665 5669 5673 5675 5678 5681 5683 5686 5689 5692 5695 5698 5701 5704 5707 5708 5710 5714 5717 5719 5720 5721 5721 5723 5725 5727 5729 5731 5734 5737 5740 5742 5744 5745 5747 5748 5750 5751 5753 5755 5756 5757 5759 5760 5762 5763 5765 5766 5768 5769 5770 5771 5772 5772 5772 5772 5772 5773 5773 5772 5772 5772 5771 5771 5770 5769 5769 5768 5767 5765 5764 5763 5762 5760 5759 5758 5758 5757 5756 5754 5753 5751 5750 5748 5746 5745 5743
5662 5665 5669 5673 5677 5680 5682 5685 5687 5690 5692 5695 5698 5702 5704 5705 5707 5710 5714 5716 5718 5720 5719 5719 5722 5725 5727 5729 5731 5734 5737 5740 5741 5743 5744 5746 5747 5748 5750 5751 5753 5754 5756 5758 5759 5761 5762 5763 5764 5765 5767 5768 5768 5768 5769 5769 5769 5769 5769 5769 5769 5768 5768 5767 5767 5766 5765 5764 5763 5762 5761 5759 5758 5757 5756 5755 5755 5754 5752 5751 5749 5748 5746 5745 5743 5742 5740
5661 5664 5668 5671 5674 5676 5678 5681 5684 5687 5690 5693 5696 5699 5701 5702 5704 5706 5710 5713 5715 5718 5717 5716 5719 5722 5725 5728 5730 5731 5734 5736 5738 5740 5741 5743 5744 5746 5747 5748 5750 5751 5753 5754 5756 5757 5758 5759 5760 5762 5763 5764 5765 5765 5765 5765 5766 5766 5766 5766 5765 5765 5764 5764 5764 5763 5762 5761 5760 5758 5757 5756 5755 5754 5753 5752 5751 5750 5749 5748 5746 5744 5743 5741 5740 5739 5737
5661 5664 5667 5668 5670 5672 5675 5678 5681 5684 5688 5690 5692 5695 5697 5699 5700 5703 5706 5709 5712 5715 5715 5715 5717 5719 5722 5726 5728 5728 5729 5732 5734 5736 5737 5739 5741 5742 5744 5746 5747 5748 5750 5751 5752 5753 5754 5755 5756 5758 5760 5761 5761 5761 5762 5762 5762 5762 5762 5762 5762 5761 5761 5761 5760 5759 5758 5757 5756 5755 5754 5753 5752 5751 5750 5749 5748 5747 5746 5745 5743 5741 5740 5738 5737 5735 5734
5661 5664 5666 5667 5669 5671 5674 5678 5680 5682 5685 5687 5689 5691 5693 5695 5697 5700 5702 5705 5709 5712 5712 5712 5713 5715 5719 5722 5725 5726 5727 5728 5730 5732 5734 5735 5737 5739 5741 5742 5743 5745 5747 5748 5749 5750 5750 5752 5753 5755 5756 5757 5757 5757 5758 5758 5759 5759 5759 5758 5758 5758 5758 5757 5757 5756 5755 5754 5753 5752 5751 5750 5749 5748 5747 5746 5745 5744 5743 5741 5740 5739 5737 5736 5734 5732 5730
5661 5662 5664 5666 5668 5670 5672 5675 5678 5680 5683 5685 5685 5687 5690 5692 5694 5696 5698 5702 5706 5708 5709 5709 5710 5712 5715 5718 5720 5722 5725 5726 5727 5729 5730 5732 5734 5736 5737 5738 5740 5741 5743 5744 5745 5746 5747 5749 5750 5751 5752 5753 5753 5754 5755 5755 5755 5755 5755 5755 5755 5754 5754 5754 5753 5752 5751 5750 5749 5748 5747 5746 5745 5744 5743 5742 5742 5741 5740 5738 5737 5736 5734 5732 5731 5729 5727
5659 5661 5663 5664 5666 5668 5670 5672 5675 5678 5680 5682 5683 5685 5687 5690 5691 5693 5696 5699 5702 5704 5707 5708 5707 5707 5709 5712 5715 5719 5722 5723 5724 5725 5726 5728 5730 5732 5733 5734 5736 5737 5739 5740 5741 5742 5744 5745 5746 5747 5748 5749 5750 5750 5751 5751 5751 5751 5751 5751 5751 5751 5750 5750 5749 5748 5747 5746 5746 5745 5744 5743 5742 5741 5740 5739 5738 5738 5737 5735 5734 5733 5731 5729 5727 5725 5723
5657 5660 5662 5663 5663 5666 5668 5670 5673 5675 5677 5679 5681 5682 5684 5686 5689 5690 5693 5695 5697 5701 5704 5704 5703 5702 5703 5707 5712 5715 5717 5719 5721 5721 5723 5724 5726 5728 5729 5731 5732 5734 5735 5736 5738 5739 5740 5741 5742 5743 5745 5745 5746 5747 5747 5747 5748 5748 5748 5748 5747 5747 5747 5746 5745 5745 5744 5743 5742 5741 5740 5740 5739 5738 5737 5736 5736 5735 5734 5732 5731 5730 5728 5726 5724 5722 5720
5655 5658 5660 5661 5662 5664 5667 5669 5671 5673 5675 5677 5678 5680 5681 5683 5685 5688 5691 5692 5694 5697 5700 5698 5697 5698 5701 5704 5708 5709 5712 5715 5716 5717 5719 5720 5722 5724 5725 5727 5728 5729 5731 5733 5734 5735 5736 5737 5738 5740 5741 5741 5742 5743 5743 5743 5744 5744 5744 5744 5743 5743 5742 5742 5741 5741 5740 5739 5738 5738 5737 5736 5735 5735 5734 5734 5733 5732 5731 5729 5728 5726 5725 5723 5721 5719 5716
5653 5655 5657 5659 5661 5662 5664 5667 5669 5671 5673 5674 5675 5677 5678 5680 5682 5684 5688 5689 5691 5694 5695 5692 5693 5697 5700 5700 5702 5703 5706 5709 5711 5712 5714 5716 5717 5719 5721 5722 5724 5725 5727 5728 5730 5731 5731 5733 5734 5735 5736 5737 5738 5739 5739 5739 5740 5740 5740 5739 5739 5739 5739 5738 5738 5737 5736 5736 5735 5734 5734 5733 5732 5732 5731 5731 5730 5729 5728 5726 5725 5723 5722 5720 5718 5715 5713
5651 5653 5655 5658 5659 5660 5662 5665 5667 5669 5670 5671 5673 5674 5676 5677 5679 5681 5684 5685 5687 5690 5689 5688 5691 5694 5695 5695 5696 5698 5701 5704 5706 5708 5710 5711 5713 5715 5716 5717 5719 5721 5723 5724 5725 5726 5727 5728 5730 5731 5732 5733 5734 5735 5735 5735 5736 5736 5736 5736 5736 5736 5735 5735 5734 5733 5733 5732 5731 5731 5730 5730 5729 5729 5728 5728 5727 5726 5725 5723 5722 5720 5718 5716 5714 5712 5710
5650 5652 5654 5656 5657 5657 5660 5663 5665 5666 5667 5668 5670 5671 5673 5674 5676 5678 5680 5682 5684 5685 5685 5685 5687 5689 5689 5691 5693 5695 5698 5700 5702 5704 5705 5707 5709 5710 5712 5714 5716 5717 5718 5719 5720 5721 5723 5724 5725 5727 5728 5729 5730 5731 5731 5731 5732 5732 5732 5732 5732 5732 5732 5731 5731 5730 5729 5729 5728 5728 5727 5727 5726 5726 5725 5725 5724 5723 5721 5720 5718 5717 5715 5713 5711 5709 5706
5649 5650 5652 5653 5653 5655 5658 5661 5662 5663 5664 5666 5668 5669 5670 5671 5672 5674 5677 5678 5679 5680 5680 5680 5683 5684 5686 5689 5690 5691 5693 5696 5697 5699 5701 5703 5705 5707 5709 5711 5712 5713 5713 5714 5716 5717 5718 5719 5721 5723 5724 5725 5726 5726 5727 5728 5728 5728 5729 5729 5729 5729 5729 5728 5727 5726 5726 5725 5725 5724 5724 5724 5723 5723 5722 5722 5720 5719 5718 5717 5715 5713 5712 5710 5708 5706 5704
5647 5648 5648 5649 5650 5653 5656 5659 5660 5661 5662 5664 5665 5666 5667 5668 5669 5670 5673 5674 5675 5675 5676 5677 5680 5682 5683 5686 5686 5687 5689 5692 5693 5695 5697 5699 5702 5704 5706 5707 5708 5708 5709 5710 5712 5713 5714 5715 5717 5718 5720 5721 5722 5722 5723 5724 5725 5725 5725 5725 5725 5725 5725 5724 5723 5723 5722 5722 5722 5721 5721 5721 5720 5720 5719 5718 5717 5716 5715 5713 5712 5710 5708 5706 5705 5703 5701
5644 5645 5646 5648 5650 5652 5654 5655 5657 5658 5660 5660 5661 5662 5664 5665 5665 5667 5669 5670 5671 5672 5673 5675 5677 5679 5680 5681 5682 5684 5685 5687 5689 5691 5693 5696 5698 5701 5702 5703 5704 5704 5705 5707 5708 5709 5710 5711 5713 5714 5716 5717 5717 5718 5719 5720 5721 5721 5721 5722 5722 5722 5721 5720 5720 5719 5719 5718 5718 5718 5718 5717 5717 5717 5716 5715 5714 5712 5711 5710 5708 5707 5705 5704 5702 5700 5698
5643 5644 5645 5646 5648 5650 5651 5652 5654 5655 5656 5657 5658 5659 5661 5662 5663 5664 5666 5667 5668 5669 5670 5672 5674 5675 5676 5678 5679 5680 5682 5682 5684 5688 5691 5692 5694 5696 5698 5700 5700 5701 5702 5703 5704 5705 5706 5707 5709 5711 5712 5712 5713 5714 5715 5716 5716 5717 5718 5718 5718 5718 5717 5717 5716 5716 5715 5715 5715 5715 5714 5714 5714 5713 5712 5711 5710 5709 5708 5707 5705 5704 5702 5701 5699 5698 5696
5642 5643 5643 5644 5645 5647 5648 5649 5651 5652 5653 5654 5655 5656 5658 5660 5661 5662 5663 5664 5665 5666 5667 5669 5671 5672 5673 5674 5676 5677 5678 5679 5681 5684 5687 5689 5690 5692 5694 5695 5695 5697 5698 5700 5700 5701 5702 5704 5705 5707 5708 5708 5709 5710 5712 5712 5712 5713 5714 5714 5714 5714 5713 5713 5713 5712 5712 5712 5711 5711 5711 5711 5710 5710 5709 5708 5707 5706 5705 5703 5702 5701 5699 5698 5696 5695 5693
5640 5641 5641 5642 5643 5645 5646 5646 5647 5648 5650 5651 5653 5654 5655 5657 5658 5659 5660 5661 5662 5663 5664 5666 5667 5668 5670 5671 5672 5673 5674 5677 5678 5680 5683 5685 5686 5688 5689 5690 5691 5693 5694 5695 5696 5697 5699 5700 5701 5703 5703 5704 5705 5707 5707 5708 5708 5709 5710 5710 5710 5710 5709 5709 5709 5709 5708 5708 5708 5708 5708 5707 5707 5706 5705 5704 5703 5702 5701 5700 5699 5698 5696 5695 5694 5692 5690
5638 5638 5639 5640 5641 5642 5643 5644 5645 5646 5647 5649 5650 5651 5651 5653 5654 5655 5656 5658 5659 5660 5662 5663 5664 5665 5666 5667 5669 5669 5671 5674 5675 5676 5679 5681 5683 5683 5685 5686 5687 5688 5689 5690 5692 5693 5694 5696 5697 5699 5699 5700 5702 5703 5703 5703 5704 5705 5705 5705 5705 5705 5705 5705 5705 5705 5705 5705 5704 5704 5704 5704 5703 5703 5702 5701 5700 5699 5698 5697 5696 5695 5694 5692 5691 5689 5687
5635 5636 5637 5638 5639 5639 5640 5641 5642 5643 5644 5645 5646 5647 5648 5649 5650 5651 5653 5654 5655 5657 5658 5660 5661 5662 5663 5664 5665 5666 5668 5670 5672 5673 5675 5677 5679 5679 5681 5682 5683 5684 5685 5686 5687 5688 5690 5692 5693 5694 5695 5696 5697 5698 5698 5699 5700 5701 5701 5701 5701 5701 5701 5701 5701 5701 5701 5701 5701 5701 5701 5700 5700 5699 5699 5698 5697 5696 5695 5694 5693 5692 5691 5690 5688 5687 5685
5633 5633 5634 5635 5636 5637 5638 5639 5640 5641 5642 5642 5643 5644 5645 5646 5647 5648 5649 5650 5652 5653 5654 5656 5657 5659 5660 5660 5661 5663 5665 5667 5668 5670 5671 5673 5674 5676 5677 5678 5679 5680 5681 5682 5683 5684 5686 5688 5689 5690 5691 5692 5693 5694 5694 5695 5696 5696 5696 5696 5696 5696 5696 5696 5697 5697 5697 5697 5697 5697 5697 5697 5696 5696 5695 5694 5694 5693 5692 5692 5691 5690 5688 5687 5686 5684 5683
5630 5631 5632 5632 5633 5634 5636 5637 5637 5638 5639 5640 5641 5641 5642 5643 5644 5645 5645 5647 5648 5649 5650 5651 5652 5654 5656 5657 5657 5659 5661 5662 5664 5666 5667 5668 5669 5671 5673 5674 5675 5676 5677 5678 5679 5680 5682 5683 5685 5686 5687 5688 5689 5689 5690 5691 5691 5691 5691 5691 5691 5691 5692 5692 5692 5692 5693 5693 5693 5693 5694 5693 5693 5692 5692 5691 5691 5690 5689 5689 5688 5687 5686 5685 5683 5682 5681
5628 5629 5630 5630 5631 5632 5633 5634 5635 5636 5636 5637 5638 5638 5639 5640 5640 5641 5642 5643 5644 5645 5646 5647 5648 5649 5651 5653 5653 5655 5656 5658 5660 5662 5662 5663 5665 5667 5668 5670 5671 5672 5673 5674 5675 5676 5677 5679 5680 5681 5682 5683 5684 5684 5685 5686 5686 5686 5686 5686 5687 5687 5688 5688 5688 5688 5689 5689 5690 5690 5690 5690 5689 5689 5688 5688 5688 5687 5687 5686 5685 5684 5683 5682 5681 5680 5679
5626 5627 5628 5628 5629 5630 5631 5632 5633 5633 5633 5634 5635 5635 5636 5637 5637 5638 5639 5640 5641 5642 5643 5644 5644 5645 5646 5648 5650 5651 5652 5654 5656 5657 5658 5659 5660 5662 5664 5665 5667 5668 5669 5669 5670 5672 5673 5675 5676 5676 5677 5679 5679 5679 5680 5681 5680 5680 5681 5682 5682 5683 5684 5684 5684 5685 5685 5685 5686 5686 5686 5686 5686 5685 5685 5685 5685 5684 5684 5683 5682 5682 5681 5680 5679 5678 5676
5623 5625 5626 5626 5627 5628 5628 5629 5630 5631 5631 5632 5632 5633 5633 5634 5634 5635 5636 5637 5637 5638 5639 5640 5641 5641 5642 5644 5645 5646 5648 5650 5652 5653 5653 5654 5655 5657 5659 5661 5662 5663 5664 5665 5666 5667 5669 5670 5671 5672 5673 5674 5674 5675 5676 5676 5676 5676 5677 5678 5678 5679 5679 5680 5680 5681 5681 5681 5682 5682 5682 5682 5682 5682 5682 5682 5681 5681 5681 5680 5680 5679 5679 5678 5677 5676 5675
5621 5622 5623 5624 5625 5625 5626 5627 5628 5629 5629 5629 5630 5630 5631 5631 5631 5632 5632 5633 5634 5634 5635 5636 5637 5637 5638 5640 5641 5642 5643 5645 5647 5648 5649 5650 5651 5653 5654 5656 5658 5659 5660 5661 5662 5662 5664 5666 5666 5667 5668 5669 5670 5670 5671 5671 5671 5672 5673 5674 5674 5675 5675 5676 5676 5676 5677 5678 5678 5678 5678 5678 5679 5679 5679 5679 5678 5678 5678 5678 5677 5677 5676 5675 5674 5673 5673
5620 5620 5621 5622 5622 5623 5624 5625 5626 5626 5626 5627 5627 5628 5628 5629 5629 5629 5629 5629 5630 5631 5632 5632 5632 5632 5634 5636 5637 5638 5639 5641 5642 5643 5645 5646 5648 5649 5650 5652 5653 5654 5655 5656 5657 5657 5659 5661 5662 5662 5664 5665 5665 5665 5667 5667 5667 5667 5669 5669 5670 5670 5671 5671 5672 5673 5673 5674 5674 5674 5675 5675 5675 5675 5675 5675 5675 5675 5675 5675 5675 5674 5674 5673 5672 5672 5671
5618 5618 5619 5619 5620 5621 5621 5622 5623 5624 5624 5624 5625 5625 5626 5626 5626 5626 5626 5626 5626 5627 5628 5628 5628 5628 5630 5631 5633 5635 5635 5636 5638 5639 5640 5642 5643 5645 5646 5647 5648 5649 5650 5651 5651 5652 5654 5656 5657 5657 5659 5660 5660 5661 5662 5662 5662 5663 5664 5664 5665 5665 5666 5667 5668 5669 5670 5670 5670 5671 5671 5671 5672 5672 5672 5672 5672 5672 5672 5672 5672 5672 5671 5670 5670 5669 5669
5615 5616 5616 5617 5617 5618 5619 5619 5620 5621 5621 5622 5622 5623 5623 5623 5623 5623 5623 5623 5623 5624 5625 5625 5625 5625 5626 5627 5629 5631 5632 5633 5634 5635 5636 5637 5639 5640 5641 5642 5643 5644 5645 5646 5647 5648 5650 5651 5652 5652 5653 5654 5655 5656 5657 5658 5658 5658 5659 5659 5660 5661 5662 5663 5664 5665 5665 5666 5666 5667 5667 5668 5668 5669 5669 5669 5669 5670 5670 5670 5670 5669 5669 5669 5668 5667 5666
5612 5613 5614 5614 5615 5615 5616 5616 5617 5618 5619 5619 5620 5620 5620 5620 5620 5620 5620 5620 5621 5621 5621 5621 5621 5622 5623 5624 5625 5627 5628 5629 5630 5631 5632 5633 5634 5635 5635 5636 5638 5639 5640 5641 5642 5643 5645 5646 5646 5646 5648 5650 5650 5651 5653 5654 5653 5653 5654 5655 5656 5657 5658 5660 5660 5661 5661 5662 5663 5663 5664 5664 5665 5665 5666 5666 5667 5667 5667 5667 5667 5667 5667 5666 5666 5665 5664
5610 5611 5611 5612 5612 5613 5613 5614 5614 5615 5616 5616 5617 5617 5617 5618 5618 5617 5618 5618 5618 5618 5618 5618 5618 5619 5620 5621 5622 5623 5625 5626 5626 5627 5628 5628 5629 5630 5631 5632 5633 5635 5636 5636 5637 5638 5640 5640 5640 5642 5644 5646 5645 5646 5647 5648 5649 5649 5650 5652 5652 5653 5654 5655 5656 5657 5658 5658 5659 5660 5661 5661 5662 5662 5663 5663 5664 5664 5664 5664 5664 5664 5664 5664 5663 5663 5662
5607 5608 5609 5609 5610 5610 5611 5611 5611 5612 5612 5613 5614 5614 5614 5615 5615 5615 5615 5615 5615 5615 5615 5616 5616 5617 5618 5618 5618 5619 5621 5622 5622 5623 5624 5625 5625 5626 5626 5627 5628 5630 5631 5632 5633 5634 5635 5635 5636 5638 5639 5640 5640 5641 5642 5643 5644 5645 5646 5647 5648 5649 5650 5650 5651 5653 5654 5655 5656 5656 5657 5658 5659 5659 5660 5660 5661 5661 5661 5661 5661 5661 5661 5661 5661 5660 5659
5605 5605 5606 5607 5608 5608 5608 5609 5609 5609 5610 5610 5611 5611 5611 5612 5612 5612 5612 5612 5612 5613 5613 5614 5614 5614 5615 5615 5615 5616 5617 5618 5619 5619 5620 5620 5621 5622 5622 5623 5624 5625 5626 5627 5628 5630 5630 5631 5632 5633 5633 5634 5635 5638 5638 5638 5639 5640 5642 5642 5643 5644 5645 5646 5647 5649 5650 5651 5652 5653 5654 5655 5656 5656 5657 5657 5658 5658 5658 5658 5659 5659 5658 5658 5658 5658 5657
5602 5602 5603 5604 5605 5605 5605 5606 5606 5607 5607 5607 5608 5608 5608 5609 5609 5609 5610 5610 5610 5610 5610 5611 5611 5611 5612 5612 5612 5613 5614 5615 5615 5616 5616 5617 5618 5619 5619 5619 5620 5621 5622 5623 5625 5625 5626 5627 5629 5629 5630 5631 5632 5634 5634 5634 5635 5636 5637 5638 5639 5640 5641 5642 5644 5645 5646 5647 5649 5650 5651 5652 5652 5653 5654 5654 5655 5655 5655 5656 5656 5656 5656 5655 5655 5655 5654
5600 5600 5600 5601 5602 5602 5602 5603 5603 5603 5604 5604 5604 5605 5605 5605 5606 5606 5606 5606 5607 5607 5607 5608 5608 5608 5609 5609 5609 5610 5611 5611 5612 5613 5613 5614 5615 5615 5615 5616 5616 5617 5618 5619 5621 5622 5622 5624 5625 5626 5626 5627 5629 5629 5630 5630 5631 5632 5633 5634 5635 5636 5637 5639 5640 5642 5643 5644 5645 5646 5647 5648 5649 5650 5651 5651 5652 5652 5652 5653 5653 5653 5653 5652 5652 5651 5651
5597 5597 5597 5598 5598 5599 5599 5599 5599 5600 5600 5600 5601 5601 5601 5601 5602 5602 5602 5603 5603 5603 5604 5604 5604 5605 5605 5606 5606 5607 5607 5608 5608 5609 5610 5610 5611 5612 5612 5613 5613 5614 5615 5615 5616 5617 5618 5620 5621 5622 5623 5624 5625 5625 5626 5626 5627 5628 5629 5629 5630 5632 5634 5636 5637 5638 5639 5640 5642 5643 5644 5645 5646 5647 5647 5648 5648 5649 5649 5649 5650 5649 5649 5649 5648 5648 5647
5593 5594 5594 5594 5595 5595 5595 5596 5596 5596 5596 5597 5597 5597 5597 5597 5598 5598 5598 5599 5599 5599 5600 5600 5600 5601 5601 5602 5602 5603 5603 5604 5605 5605 5606 5607 5607 5608 5609 5609 5610 5611 5611 5611 5612 5613 5615 5616 5617 5618 5619 5620 5621 5622 5622 5622 5623 5624 5625 5626 5627 5629 5630 5632 5633 5635 5636 5637 5638 5639 5640 5641 5642 5643 5644 5645 5645 5645 5646 5646 5646 5646 5646 5646 5645 5644 5643
5591 5591 5591 5592 5592 5592 5592 5593 5593 5593 5593 5593 5594 5593 5594 5594 5594 5594 5594 5594 5595 5595 5595 5596 5596 5596 5597 5597 5598 5599 5599 5600 5600 5601 5602 5602 5603 5604 5605 5606 5606 5607 5608 5608 5609 5610 5611 5612 5613 5614 5615 5616 5617 5618 5618 5618 5619 5621 5622 5623 5624 5626 5627 5628 5629 5631 5632 5634 5635 5636 5637 5638 5639 5640 5641 5641 5641 5642 5642 5642 5643 5642 5642 5642 5641 5640 5639
5589 5589 5589 5590 5590 5590 5590 5590 5591 5591 5591 5591 5591 5591 5591 5591 5591 5591 5591 5591 5591 5591 5591 5592 5592 5592 5592 5593 5593 5594 5595 5595 5596 5597 5597 5598 5599 5600 5601 5602 5603 5604 5604 5605 5606 5607 5608 5609 5610 5611 5612 5613 5614 5614 5614 5615 5616 5618 5619 5620 5621 5622 5623 5624 5626 5627 5629 5630 5631 5632 5633 5634 5635 5636 5637 5637 5638 5638 5639 5639 5639 5639 5638 5638 5637 5637 5636
5587 5587 5588 5588 5588 5588 5588 5589 5589 5589 5589 5588 5588 5588 5588 5588 5588 5588 5588 5588 5588 5588 5588 5588 5588 5588 5588 5588 5589 5589 5590 5590 5591 5592 5593 5594 5595 5596 5597 5598 5599 5600 5600 5601 5602 5604 5605 5606 5607 5608 5609 5610 5611 5611 5611 5612 5613 5615 5616 5617 5618 5619 5620 5621 5622 5624 5625 5626 5627 5628 5630 5630 5631 5632 5633 5634 5634 5634 5635 5635 5635 5634 5634 5634 5633 5633 5632
5585 5586 5586 5586 5587 5587 5587 5587 5587 5587 5587 5586 5586 5586 5586 5586 5586 5586 5586 5586 5586 5586 5585 5585 5585 5584 5584 5584 5584 5584 5585 5585 5586 5587 5588 5588 5589 5591 5592 5593 5594 5595 5596 5597 5598 5600 5601 5602 5604 5604 5605 5606 5608 5609 5609 5609 5610 5611 5613 5613 5614 5616 5617 5618 5619 5620 5621 5622 5623 5625 5626 5627 5628 5629 5629 5630 5630 5631 5631 5631 5630 5630 5630 5629 5628 5628 5627
5584 5584 5584 5585 5585 5585 5585 5585 5585 5585 5585 5585 5584 5584 5584 5584 5584 5584 5583 5583 5583 5583 5583 5582 5582 5581 5580 5580 5580 5580 5580 5581 5581 5582 5583 5584 5585 5586 5587 5588 5590 5592 5593 5594 5595 5596 5597 5599 5600 5601 5601 5602 5604 5605 5606 5606 5607 5608 5609 5610 5611 5612 5613 5614 5615 5616 5617 5618 5620 5621 5622 5623 5624 5625 5625 5626 5626 5626 5626 5626 5626 5626 5625 5625 5624 5623 5622
5583 5583 5583 5584 5584 5584 5584 5584 5584 5584 5584 5583 5583 5583 5582 5582 5582 5582 5581 5581 5581 5580 5580 5580 5579 5578 5577 5577 5576 5576 5576 5576 5577 5578 5579 5580 5581 5582 5583 5584 5585 5587 5588 5589 5591 5592 5594 5595 5595 5596 5597 5598 5599 5600 5601 5601 5602 5603 5604 5606 5607 5608 5609 5610 5611 5612 5613 5615 5616 5617 5618 5619 5620 5621 5621 5622 5622 5622 5622 5622 5621 5621 5621 5620 5620 5619 5618
5582 5582 5582 5583 5583 5583 5583 5583 5582 5582 5582 5582 5581 5581 5581 5580 5580 5580 5580 5579 5579 5579 5578 5577 5577 5576 5575 5574 5574 5573 5573 5573 5574 5574 5575 5576 5577 5579 5580 5580 5581 5582 5583 5585 5586 5588 5589 5590 5591 5592 5593 5594 5595 5595 5596 5597 5598 5599 5600 5602 5603 5604 5605 5606 5607 5609 5610 5611 5612 5613 5614 5615 5616 5616 5617 5617 5617 5617 5617 5617 5617 5617 5616 5615 5615 5614 5613
5581 5581 5581 5581 5581 5581 5581 5581 5581 5581 5580 5580 5580 5579 5579 5579 5579 5578 5578 5578 5577 5577 5576 5576 5575 5574 5573 5573 5572 5571 5571 5571 5571 5572 5573 5574 5575 5576 5577 5578 5578 5579 5580 5581 5582 5583 5585 5586 5587 5587 5588 5589 5590 5591 5592 5593 5594 5596 5597 5598 5599 5600 5602 5603 5604 5605 5606 5607 5608 5609 5610 5611 5611 5612 5612 5612 5612 5612 5612 5612 5612 5612 5611 5610 5610 5609 5607
5579 5579 5580 5580 5580 5580 5580 5580 5579 5579 5579 5578 5578 5578 5577 5577 5577 5577 5576 5576 5576 5575 5575 5574 5574 5573 5572 5571 5571 5570 5570 5569 5569 5570 5571 5571 5572 5574 5574 5575 5575 5576 5577 5578 5579 5580 5581 5582 5582 5583 5584 5585 5587 5588 5589 5590 5592 5593 5594 5595 5596 5597 5598 5599 5600 5601 5602 5603 5604 5605 5606 5606 5607 5607 5607 5607 5607 5607 5607 5607 5607 5606 5606 5605 5604 5604 5603
5577 5577 5578 5578 5578 5578 5578 5578 5578 5578 5577 5577 5577 5576 5576 5575 5575 5575 5574 5574 5574 5574 5573 5573 5572 5572 5571 5571 5570 5569 5569 5568 5568 5569 5569 5570 5570 5571 5572 5572 5573 5574 5574 5575 5576 5577 5578 5578 5579 5580 5581 5583 5584 5585 5586 5587 5588 5589 5590 5591 5593 5594 5595 5595 5596 5597 5598 5599 5600 5601 5601 5602 5602 5602 5602 5602 5602 5602 5602 5601 5601 5600 5599 5598 5598 5597 5597
5575 5575 5576 5576 5576 5576 5576 5576 5576 5576 5576 5575 5575 5575 5574 5574 5574 5573 5573 5572 5572 5572 5572 5571 5571 5570 5570 5570 5569 5569 5568 5568 5567 5567 5568 5568 5568 5569 5569 5569 5570 5571 5572 5572 5573 5574 5575 5576 5576 5577 5578 5580 5581 5582 5583 5584 5585 5586 5587 5588 5589 5589 5590 5591 5592 5593 5594 5595 5595 5596 5596 5597 5597 5597 5597 5597 5597 5597 5596 5595 5595 5594 5593 5592 5591 5591 5590
5573 5573 5574 5574 5574 5574 5574 5575 5575 5574 5574 5574 5574 5573 5573 5573 5572 5572 5571 5571 5571 5570 5570 5570 5570 5569 5569 5568 5568 5568 5567 5567 5567 5566 5566 5566 5567 5567 5567 5567 5568 5568 5569 5570 5571 5571 5572 5573 5574 5575 5575 5576 5577 5579 5580 5581 5581 5582 5583 5584 5584 5585 5586 5587 5588 5589 5589 5590 5591 5591 5591 5591 5592 5592 5592 5592 5592 5591 5591 5590 5589 5588 5587 5586 5585 5584 5583
5570 5571 5571 5571 5572 5572 5572 5572 5572 5572 5572 5572 5572 5572 5571 5571 5571 5571 5570 5570 5569 5569 5569 5568 5568 5568 5567 5567 5567 5566 5566 5566 5566 5566 5565 5565 5565 5565 5566 5566 5566 5566 5566 5567 5568 5569 5570 5570 5571 5572 5572 5573 5574 5575 5576 5577 5578 5579 5579 5580 5581 5581 5582 5583 5584 5584 5585 5585 5586 5586 5586 5586 5586 5586 5586 5586 5586 5586 5585 5584 5583 5582 5581 5580 5578 5577 5576